Baker, MT

5:42 PM MST on February 19, 2018 (GMT -0700)
Baker Municipal

Weather History for KBHK - September, 2013

Change the Weather History Date:

Monday, September 9, 2013

  Actual Average Record
Temperature  
Mean Temperature 64 °F -  
Max Temperature 75 °F 90 °F 96 °F (1998)
Min Temperature 54 °F 45 °F 30 °F (1999)
Degree Days  
Heating Degree Days 2    
Growing Degree Days 14 (Base 50)    
Moisture  
Dew Point 53 °F    
Average Humidity 73    
Maximum Humidity 94    
Minimum Humidity 38    
Precipitation  
Precipitation 0.02 in - - ()
Sea Level Pressure  
Sea Level Pressure 29.85 in    
Wind  
Wind Speed 13 mph (WNW)    
Max Wind Speed 32 mph    
Max Gust Speed 40 mph    
Visibility 10 miles    
Events Rain    
Averages and records for this station are not official NWS values.
T = Trace of Precipitation, MM = Missing Value Source: NWS Daily Summary

Daily Weather History Graph

Daily Weather History Graph

Search for Another Location

Airport or City:

Trip Planner

Search our weather history database for the weather conditions in past years. The results will help you decide how hot, cold, wet, or windy it might be!

Date:

Astronomy

Sep. 09, 2013 Rise Set
Actual Time 6:27 AM MDT 7:19 PM MDT
Civil Twilight 5:57 AM MDT 7:50 PM MDT
Nautical Twilight 5:20 AM MDT 8:26 PM MDT
Astronomical Twilight 4:42 AM MDT 9:04 PM MDT
Moon 11:10 AM MDT (9/9) 9:19 PM MDT (9/9)
Length of Visible Light 13h 52m
Length of Day
12h 51m
Waxing Crescent, 19% of the Moon is Illuminated
Sep 9
Waxing Crescent
Sep 12
First Quarter
Sep 19
Full
Sep 26
Last Quarter
Oct 4
New

Hourly Weather History & Observations

Time (MDT) Temp. Dew Point Humidity Pressure Visibility Wind Dir Wind Speed Gust Speed Precip Events Conditions
12:24 AM 66.2 °F 62.6 °F 88% 29.82 in 9.0 mi West 6.9 mph - N/A   Overcast
12:37 AM 66.2 °F 62.6 °F 88% 29.82 in 8.0 mi WNW 6.9 mph - N/A   Overcast
12:51 AM 61.0 °F 57.0 °F 87% 29.79 in 8.0 mi NW 32.2 mph 40.3 mph 0.01 in Rain Light Rain
12:57 AM 60.8 °F 55.4 °F 82% 29.84 in 10.0 mi NW 23.0 mph 40.3 mph 0.00 in Rain Light Rain
1:06 AM 59.0 °F 55.4 °F 88% 29.85 in 8.0 mi NW 26.5 mph 36.8 mph 0.00 in Rain Light Rain
1:23 AM 59.0 °F 55.4 °F 88% 29.86 in 10.0 mi NW 21.9 mph 31.1 mph 0.01 in Rain Light Rain
1:51 AM 57.9 °F 55.0 °F 90% 29.81 in 10.0 mi WNW 15.0 mph 27.6 mph 0.01 in Rain Light Rain
1:58 AM 57.2 °F 55.4 °F 94% 29.86 in 10.0 mi WNW 15.0 mph 21.9 mph 0.00 in Rain Light Rain
2:03 AM 57.2 °F 55.4 °F 94% 29.85 in 10.0 mi WNW 12.7 mph 21.9 mph 0.00 in Rain Light Rain
2:51 AM 57.0 °F 54.0 °F 89% 29.78 in 10.0 mi WNW 6.9 mph - 0.00 in   Scattered Clouds
3:51 AM 55.9 °F 53.1 °F 90% 29.77 in 10.0 mi West 6.9 mph - N/A   Clear
4:51 AM 55.9 °F 53.1 °F 90% 29.81 in 10.0 mi West 12.7 mph - N/A   Clear
5:51 AM 55.9 °F 52.0 °F 87% 29.83 in 10.0 mi WNW 5.8 mph - N/A   Clear
6:51 AM 54.0 °F 51.1 °F 90% 29.83 in 10.0 mi WSW 5.8 mph - N/A   Clear
7:51 AM 57.9 °F 54.0 °F 87% 29.85 in 10.0 mi West 11.5 mph - N/A   Clear
8:46 AM 60.8 °F 55.4 °F 82% 29.89 in 10.0 mi WNW 12.7 mph - N/A   Partly Cloudy
8:51 AM 62.1 °F 55.9 °F 80% 29.85 in 10.0 mi WNW 12.7 mph - N/A   Partly Cloudy
9:17 AM 62.6 °F 55.4 °F 77% 29.89 in 10.0 mi West 11.5 mph - N/A   Mostly Cloudy
9:37 AM 64.4 °F 55.4 °F 73% 29.89 in 10.0 mi West 13.8 mph - N/A   Scattered Clouds
9:51 AM 64.0 °F 55.0 °F 73% 29.85 in 10.0 mi West 13.8 mph 21.9 mph N/A   Scattered Clouds
10:51 AM 66.9 °F 51.1 °F 57% 29.85 in 10.0 mi West 15.0 mph 24.2 mph N/A   Clear
11:51 AM 70.0 °F 53.1 °F 55% 29.84 in 10.0 mi WNW 13.8 mph - N/A   Partly Cloudy
12:51 PM 71.1 °F 52.0 °F 51% 29.85 in 10.0 mi West 11.5 mph 24.2 mph N/A   Mostly Cloudy
1:51 PM 72.0 °F 48.0 °F 43% 29.85 in 10.0 mi WNW 15.0 mph 23.0 mph N/A   Mostly Cloudy
2:51 PM 73.0 °F 46.0 °F 38% 29.84 in 10.0 mi WNW 16.1 mph 21.9 mph N/A   Mostly Cloudy
3:51 PM 73.0 °F 46.0 °F 38% 29.83 in 10.0 mi WNW 15.0 mph 20.7 mph N/A   Partly Cloudy
4:51 PM 72.0 °F 45.0 °F 38% 29.85 in 10.0 mi West 20.7 mph 27.6 mph N/A   Overcast
5:51 PM 71.1 °F 46.0 °F 41% 29.86 in 10.0 mi West 20.7 mph 25.3 mph N/A   Scattered Clouds
6:51 PM 68.0 °F 48.0 °F 49% 29.88 in 10.0 mi WNW 11.5 mph - N/A   Overcast
7:51 PM 64.9 °F 48.9 °F 56% 29.89 in 10.0 mi West 10.4 mph - N/A   Clear
8:51 PM 61.0 °F 48.9 °F 64% 29.91 in 10.0 mi WNW 5.8 mph - N/A   Clear
9:51 PM 57.9 °F 48.9 °F 72% 29.93 in 10.0 mi WSW 6.9 mph - N/A   Clear
10:51 PM 57.9 °F 50.0 °F 75% 29.93 in 10.0 mi WSW 8.1 mph - N/A   Clear
11:51 PM 55.9 °F 48.9 °F 77% 29.93 in 10.0 mi West 8.1 mph - N/A   Clear